www.pogodaiklimat.ru

Погода и климат >> Архив погоды >> Киргизия >> Бишкек


АРХИВ ПОГОДЫ в Бишкеке

Время (UTC), дата Ветер
(напр.,м/с)
 
Видим.   Явления Облачность Т
(С)
Тd
(С)
f
(%)
Тe
(С)
Тes
(С)
Комфортность P
(гПа)
Po
(гПа)
Тmin
(С)
Tmax
(С)
R
(мм)
S
(см)
18 20.03 штиль 0 н/о ясно +1.8 -0.7 83 +1 +1 по сезону 1016.4 926.4 +11.9
21 20.03 ЮЗ 1 н/о ясно +0.6 -2.7 79 -1 -1 прохладно 1016.7 926.2
00 21.03 штиль 0 н/о 10/0
[Ac und]
+0.8 -1.2 86 -0 -0 по сезону 1015.5 925.2
03 21.03 С 1 10 км 10/4 600 м
[Sc Ac und]
+1.9 -1.5 78 0 +1 холодно 1014.7 924.8
06 21.03 З 2 20 км 8/0
[Ac trans]
+8.6 -1.7 48 +7 +13 по сезону 1010.7 923.1
09 21.03 СЗ 2 20 км 10/0
[Ac und]
+10.9 -2.5 39 +10 +13 по сезону 1008.5 921.8
12 21.03 С 1 10 км 10/10 600 м
[Sc]
+9.2 -2.2 45 +9 +9 по сезону 1011.1 923.6
15 21.03 З 2 н/о 10/6 600 м
[Sc Ac lent]
+6.1 -1.1 60 +4 +4 прохладно 1014.7 926.1 +11.4
18 21.03 З 2 н/о 10/10 600 м
[Sc]
+4.8 -1.2 65 +3 +3 по сезону 1016.3 927.2 +11.4
21 21.03 штиль 0 н/о 10/10 600 м
[Sc]
+4.4 -1.0 68 +4 +4 по сезону 1017.1 927.8
00 22.03 В 1 н/о 8/0
[Ac trans]
+4.6 -0.2 71 +4 +4 по сезону 1018.3 928.9
03 22.03 штиль 0 10 км 10/4 600 м
[Sc Ac trans Ci fib]
+5.2 +0.8 73 +4 +6 по сезону 1020.1 930.7
06 22.03 З 3 10 км в посл. час дождь 10/10 600 м
[Sc]
+6.2 +3.3 82 +3 +3 холодно 1023.0 933.7
09 22.03 В 2 10 км {дождь} 10/3 600 м
[Sc Ac trans Ci fib]
+10.2 +5.0 70 +9 +12 по сезону 1020.3 932.5
12 22.03 В 1 10 км {дождь} 10/4 600 м
[Sc Ac trans Ci fib]
+12.6 +6.1 65 +13 +13 тепло 1019.6 932.6
15 22.03 Ю 1 н/о 6/0
[Ac trans Ci fib]
+8.7 +3.4 69 +8 +8 по сезону 1021.3 933.0 +13.0
18 22.03 Ю 1 н/о ясно +7.6 +3.4 75 +7 +7 по сезону 1020.5 931.9 +13.0 0.4
21 22.03 штиль 0 н/о ясно +5.0 +1.7 79 +4 +4 по сезону 1020.4 931.0
00 23.03 штиль 0 н/о ясно +3.3 +0.9 84 +2 +2 по сезону 1020.6 930.6
03 23.03 штиль 0 20 км 10/0
[Ci fib]
+6.7 +2.3 73 +6 +10 по сезону 1021.5 932.5
06 23.03 З 2 20 км 10/0
[Ac trans Ci fib]
+13.7 +3.8 51 +13 +21 тепло 1020.7 933.9
09 23.03 З 2 20 км 10/0
[Ac trans Ci fib]
+16.1 +5.0 48 +16 +22 тепло 1020.0 933.9
12 23.03 СЗ 2 20 км 4/0
[Ac trans]
+17.4 +3.8 40 +18 +19 тепло 1020.4 934.6
15 23.03 Ю 1 н/о 10/0
[Ci fib]
+12.7 +4.3 57 +13 +13 тепло 1023.6 936.3 +18.1
18 23.03 Ю 1 н/о 6/0
[Ci fib]
+10.5 +3.8 63 +10 +10 тепло 1024.3 936.3 +18.1
21 23.03 Ю 1 н/о ясно +9.7 +3.8 67 +9 +9 тепло 1022.7 934.5
00 24.03 ЮЗ 1 н/о ясно +6.3 +1.6 72 +5 +5 по сезону 1022.5 933.3
03 24.03 штиль 0 20 км 6/0
[Ci fib]
+10.2 +1.7 56 +10 +14 тепло 1019.7 931.9
06 24.03 СЗ 1 20 км 9/0
[Ac trans Ci fib]
+17.6 +2.1 35 +19 +26 тепло 1015.3 930.0
09 24.03 СЗ 2 20 км 10/0
[Ac trans]
+18.6 +0.4 29 +19 +23 тепло 1014.3 929.4
12 24.03 З 1 20 км 10/0
[Ac trans]
+16.4 +3.4 42 +17 +18 тепло 1014.3 928.8
15 24.03 Ю 1 н/о 10/0
[Ac As]
+12.9 +5.1 59 +13 +13 тепло 1015.8 929.2 +19.6
18 24.03 штиль 0 н/о 10/0
[Ac As]
+11.1 +5.5 68 +11 +11 тепло 1018.9 931.5 +19.6
21 24.03 З 2 н/о 8/8
[Cb calv]
+8.9 +4.8 75 +7 +7 по сезону 1021.4 933.2
00 25.03 ЮВ 2 н/о 6/3
[Cb calv Ci fib]
+7.3 +1.9 69 +5 +5 по сезону 1022.9 934.0
03 25.03 ЮЗ 1 20 км 8/0
[Ac trans Ci fib]
+7.8 +4.8 81 +7 +10 по сезону 1022.4 933.7
06 25.03 ЮВ 2 20 км 8/0
[Ac trans Ci fib]
+16.2 +3.4 42 +16 +25 тепло 1017.2 931.4
09 25.03 СЗ 3 20 км 6/0
[Ci fib]
+17.1 +3.8 41 +17 +24 тепло 1015.4 930.0
12 25.03 З 3 20 км 8/0
[Ac trans Ci fib]
+16.5 +5.3 47 +16 +17 тепло 1015.6 930.0
15 25.03 штиль 0 н/о 8/0
[Ac trans Ci fib]
+11.7 +5.9 68 +11 +11 по сезону 1015.6 928.6 +18.6
18 25.03 штиль 0 н/о 10/0
[Ac lent]
+9.8 +5.5 75 +9 +9 тепло 1016.4 928.9 +18.6
21 25.03 З 2 н/о 10/0
[Ac lent]
+9.5 +4.3 70 +8 +8 тепло 1017.6 929.8
00 26.03 СВ 1 н/о 10/0
[Ac lent]
+8.7 +5.3 79 +8 +8 тепло 1017.7 929.7
03 26.03 В 1 10 км 10/6 600 м
[Sc Ac trans]
+8.5 +6.1 85 +8 +8 по сезону 1018.9 930.7
06 26.03 З 3 10 км 10/10 600 м
[Sc]
+10.5 +6.4 76 +9 +9 по сезону 1021.1 933.4
09 26.03 З 2 4000 м дождь 10/10 300 м
[Frnb Ns]
+7.7 +5.9 88 +6 +6 холодно 1022.8 934.1
12 26.03 З 2 4000 м дождь 10/10 300 м
[Frnb Ns]
+5.1 +3.7 91 +2 +2 очень
холодно
1024.9 935.2
15 26.03 З 1 н/о в посл. час дождь 10/10 600 м
[Sc]
+4.5 +3.3 92 +3 +3 холодно 1025.2 935.3 +11.6
18 26.03 З 1 н/о слабый дождь 10/10 600 м
[Sc]
+4.0 +2.8 92 +2 +2 прохладно 1025.8 935.6 +11.6 4
21 26.03 штиль 0 н/о дождь 10/10 300 м
[Frnb Ns]
+3.6 +2.6 93 +2 +2 по сезону 1027.0 936.5
00 27.03 З 1 н/о дождь 10/10 300 м
[Frnb Ns]
+2.7 +1.7 93 +1 +1 по сезону 1027.5 936.5
03 27.03 В 1 10 км {дождь} 10/10 1000 м
[Sc Ac trans]
+3.7 +1.4 85 +2 +2 прохладно 1025.6 935.4
06 27.03 С 1 10 км {дождь} 10/10 1000 м
[Sc]
+5.3 +2.6 83 +4 +4 холодно 1022.4 932.9 4
09 27.03 ЮЗ 2 10 км 10/10 1000 м
[Sc]
+7.7 +2.7 71 +6 +6 холодно 1021.0 932.4
12 27.03 ЮЗ 1 20 км 10/5 1000 м
[Sc Ac trans]
+8.1 +4.0 75 +7 +8 холодно 1022.9 934.3
15 27.03 СВ 1 н/о 10/0
[Ac trans]
+8.1 +4.0 75 +7 +7 по сезону 1023.8 935.1 +8.3

 

Местоположение метеостанции Бишкек (город Бишкек, Киргизия): широта 42.85 долгота 74.53 высота над уровнем моря 760 м.

В архиве по умолчанию представлена погода в Бишкеке за последнюю неделю. Архивные данные за месяц целиком и за предыдущие месяцы, начиная с января 2011 года, Вы можете получить, выбрав интересующий диапазон дат из раскрывающегося списка и нажав кнопку "Ввод!".

Внимание! Время в таблицах - всемирное. Для получения местного времени необходимо прибавить поправку, которая в Бишкеке равна 6 ч.

Смотрите также архив погоды в соседних городах и на ближайших метеорологических станциях:

Погода в Байтике (Чуйская область, Киргизия) (22 км)
Погода в Иссык-Ате (город Бишкек, Киргизия) (28 км)
Погода в Яны-Жере (Чуйская область, Киргизия) (46 км)
Погода в Бериктасе (Жамбылская область, Казахстан) (49 км)
Погода в Кара-Балте (Чуйская область, Киргизия) (58 км)
Погода в Тео-Ашуу (Чуйская область, Киргизия) (58 км)
Погода в Токмоке (Чуйская область, Киргизия) (61 км)
Погода в Кордае (Жамбылская область, Казахстан) (66 км)
Погода в Сусамыре (Чуйская область, Киргизия) (90 км)
Погода в Отаре (Жамбылская область, Казахстан) (96 км)

Пояснения к столбцам:

Ветер - указаны скорость ветра в м/с - средняя за 10 мин, порывы в срок и между сроками (в фигурных скобках) и направление, откуда дует ветер: С - северный, СВ - северо-восточный, В - восточный, ЮВ - юго-восточный, Ю - южный, ЮЗ - юго-западный, З - западный, СЗ - северо-западный.
Видимость - горизонтальная дальность видимости в метрах или километрах. При видимости от 1 до 10 км при отсутствии осадков обычно наблюдается дымка, при ухудшении видимости до 1 км и менее - туман. В сухую погоду видимость может ухудшаться дымом, пылью или мглою.
Явления - указаны атмосферные явления, наблюдавшиеся в срок или в последний час перед сроком; фигурными скобками обозначены явления, наблюдавшиеся между сроками (за 1-3 часа до срока); квадратными скобками обозначены град или гололедные отложения с указанием их диаметра в мм.
Облачность - указаны через наклонную черту общая и нижняя облачность в баллах и высота нижней границы облаков в метрах; квадратными скобками обозначены формы облаков: Ci - перистые, Cs - перисто-слоистые, Cc - перисто-кучевые, Ac - высококучевые, As - высокослоистые, Sc - слоисто-кучевые, Ns - слоисто-дождевые, Cu - кучевые, Cb - кучево-дождевые. Подробнее классификацию облаков см. в Атласе облаков (PDF).
T - Температура воздуха - температура, измеренная на высоте 2 м над землей.
Td - Температура точки росы - температура, при понижении до которой содержащийся в воздухе водяной пар достигнет насыщения.
f - Относительная влажность воздуха - влажноcть воздуха, измеренная на высоте 2 м над землей.
Te - Эффективная температура - температура, которую ощущает одетый по сезону человек в тени. Характеристика душности погоды. При расчете учитывается влияние влажности воздуха и скорости ветра на теплоощущения человека.
Tes - Эффективная температура на солнце - температура, которую ощущает человек, с поправкой на солнечный нагрев. Характеристика знойности погоды. Зависит от высоты солнца над горизонтом, облачности и скорости ветра. Ночью, в пасмурную погоду, а также при ветре 12 м/с и более поправка равна нулю.
P - Атмосферное давление - приведенное к уровню моря атмосферное давление.
Po - Атмосферное давление - измеренное на уровне метеостанции атмосферное давление.
Tmin - Минимальная температура - минимум температуры воздуха на высоте 2 м над землей.
Tmax - Максимальная температура - максимум температуры воздуха на высоте 2 м над землей.
R - Количество осадков - Количество выпавших осадков, мм. При наведении курсора мыши на число - период времени, за который выпало указанное количество осадков.
S - Снежный покров - Высота снежного покрова, см. При наведении курсора мыши на число - состояние снежного покрова и степень покрытия местности в баллах.